Regional Weather Roundup
Issued by NWS Albany, NY

Home | Current Version | Previous Version | Graphics & Text | Print | Product List | Glossary Off
Versions: 1 2 3 4 5 6 7 8 9 10 11 12 13 14 15 16 17 18 19 20 21 22 23 24 25 26 27 28 29 30 31 32 33 34 35 36 37 38 39 40 41 42 43 44 45 46 47 48 49 50

274
ASUS41 KALY 261510
RWRALY

NEW YORK STATE HOURLY WEATHER ROUNDUP
NATIONAL WEATHER SERVICE ALBANY NY
1100 AM EDT THU MAY 26 2016

NOTE: "FAIR" INDICATES FEW OR NO CLOUDS BELOW 12,000 FEET WITH NO
SIGNIFICANT WEATHER AND/OR NO OBSTRUCTIONS TO VISIBILITY.

NYZ032-033-038>043-046>054-057>066-NYZ062>081-082-084-261600-
EAST


CITY           SKY/WX    TMP DP  RH WIND       PRES   REMARKS
ALBANY         PTSUNNY   75  57  53 CALM      30.10F
GLENS FALLS    MOSUNNY   73  52  47 E6        30.10F
POUGHKEEPSIE   CLOUDY    80  58  46 CALM      30.08F
NEWBURGH       SUNNY     81  61  50 CALM      30.11S
MONTGOMERY     MOSUNNY   80  61  52 CALM      30.09S
WHITE PLAINS   MOSUNNY   82  51  34 SE5       30.10F
ISLIP          PTSUNNY   81  55  40 VRB6      30.10R
NEW YORK CITY  PTSUNNY   84  59  42 NE6       30.08F
CENTRAL PARK   SUNNY     83  52  34 CALM      30.11F
$$

NYZ005>009-017-018-044>046-055-056-261600-
CENTRAL


CITY           SKY/WX    TMP DP  RH WIND       PRES   REMARKS
FULTON         CLOUDY    79  59  50 CALM      30.05F
SYRACUSE       CLOUDY    79  60  52 NE3       30.04F
ROME           MOSUNNY   78  58  49 CALM      30.08F
ELMIRA         MOSUNNY   77  58  51 CALM      30.08F
BINGHAMTON     MOSUNNY   75  54  47 S7        30.12F
MONTICELLO     CLOUDY    73  55  53 S6        30.16S
$$

NYZ026>034-041>043-087-261600-
NORTH


CITY           SKY/WX    TMP DP  RH WIND       PRES   REMARKS
WATERTOWN      MOSUNNY   76  57  51 VRB5      30.05F
FORT DRUM      NOT AVBL
MASSENA        SUNNY     71  50  47 NE10      30.11F
SARANAC LAKE   CLOUDY    72  49  44 S3        30.10F
PLATTSBURGH    SUNNY     68  46  45 NE10      30.12F
$$

NYZ001>004-010>016-019>021-085-261600-
WEST


CITY           SKY/WX    TMP DP  RH WIND       PRES   REMARKS
BUFFALO        CLOUDY    77  62  59 SE5       30.03F
DUNKIRK        CLOUDY    79  61  53 S15       30.02F
JAMESTOWN      PTSUNNY   73  59  60 S10G17    30.08F
WELLSVILLE     PTSUNNY   74  55  51 S6        30.14S
ROCHESTER      CLOUDY    78  57  48 S6        30.05S
PENN YAN       SUNNY     81  55  40 VRB6      30.07F
$$

             KEY
       WCI = WIND CHILL INDEX
       VSB = VISIBILITY
       HX  = HEAT INDEX
$$




USA.gov is the U.S. government's official web portal to all federal, state and local government web resources and services.